ORBCOMM FM109 (40086 NORAD) Tracking and Keplerian Element Data

This shows tracking and keplerian element data for the satellite.

Feedback or suggestion? Click here.




ElementValue
Catalog40086
NameORBCOMM FM109
Epoch Orbit56151
Epoch Day34.21500557
Epoch Year2025
RAAN288.8542
Inclination47.0039
Eccentricity0.0001374
Argument of Perigee78.2812
Mean Anonmoly281.8227
Mean Motion14.57763206
Decay Rate1.752E-05
L11 40086U 14040A 25034.21500557 .00001752 00000+0 41615-3 0 9990
L22 40086 47.0039 288.8542 0001374 78.2812 281.8227 14.57763206561512



Live tracking and technical data element details for ORBCOMM FM109 (NORAD 40086). ORBCOMM FM109 can be tracked NOW for your location showing map with azimuth and elevation plus other details from your city location.







IsCatalogInMostPopularTable: catalog: 40086, numindb: 528
Update: records affected: 1



GetName: 40086 ORBCOMM FM109

Hit Count: updated at: Thu, 15 May 2025 19:28:36 GMT